SA3PJN-WX Weather Reports


time (UTC)temp
C
wind
direction
speed
KPH
gust
KPH
rain 1hr
cm
rain 24hr
cm
rain mn
cm
humidity
%
barometer
mb
20260510190103 2 166 3.2 9.7 0.00 0.00 0.00 99 961.9
20260510185533 2 159 3.2 11.3 0.00 0.00 0.00 99 961.9
20260510185033 2 257 4.8 11.3 0.00 0.00 0.00 99 961.9
20260510184533 2 201 3.2 9.7 0.00 0.00 0.00 99 961.9
20260510184003 2 214 4.8 9.7 0.00 0.00 0.00 99 961.8
20260510183503 2 207 4.8 9.7 0.00 0.00 0.00 10 961.9
20260510183003 2 208 4.8 9.7 0.00 0.00 0.00 99 962.0
20260510182503 2 214 4.8 9.7 0.00 0.00 0.00 10 962.0
20260510181933 2 250 4.8 11.3 0.00 0.00 0.00 10 962.1
20260510181433 2 219 4.8 11.3 0.00 0.00 0.00 10 962.1
20260510180903 2 262 4.8 9.7 0.00 0.00 0.00 10 962.2
20260510180403 2 265 4.8 9.7 0.00 0.00 0.00 10 962.2
20260510175903 2 245 4.8 9.7 0.00 0.00 0.00 10 962.2
20260510175403 2 218 4.8 11.3 0.00 0.00 0.00 10 962.1
20260510174903 2 221 4.8 11.3 0.00 0.00 0.00 10 962.1
20260510174403 2 224 6.4 12.9 0.00 0.00 0.00 10 962.1
20260510173903 2 253 8.0 14.5 0.00 0.00 0.00 10 962.1
20260510173403 2 235 8.0 14.5 0.00 0.00 0.00 10 962.1
20260510172903 2 209 6.4 12.9 0.00 0.00 0.00 10 962.2
20260510172403 2 243 6.4 12.9 0.00 0.00 0.00 10 962.1
20260510171903 2 241 6.4 14.5 0.00 0.00 0.00 99 962.2
20260510171403 2 217 6.4 14.5 0.00 0.00 0.00 99 962.1
20260510170903 2 233 6.4 14.5 0.00 0.00 0.00 99 962.2
20260510170333 2 255 8.0 17.7 0.00 0.00 0.00 98 962.2
20260510165833 2 272 9.7 19.3 0.00 0.00 0.00 99 962.2
20260510165332 2 254 9.7 22.5 0.00 0.00 0.00 99 962.2
20260510164832 2 235 9.7 22.5 0.00 0.00 0.00 98 962.1
20260510164332 2 205 9.7 19.3 0.00 0.00 0.00 98 962.2
20260510163832 2 249 11.3 17.7 0.00 0.00 0.00 99 962.5
20260510163332 2 259 11.3 22.5 0.00 0.00 0.00 98 962.5
20260510162832 2 238 9.7 22.5 0.00 0.00 0.00 10 962.4
20260510162332 2 207 9.7 22.5 0.00 0.00 0.00 99 962.4
20260510161832 2 208 9.7 20.9 0.00 0.00 0.00 10 962.5
20260510161332 2 255 9.7 20.9 0.00 0.00 0.00 10 962.7
20260510160832 2 246 9.7 19.3 0.00 0.00 0.00 10 962.7
20260510160332 2 239 9.7 19.3 0.00 0.00 0.00 10 962.6
20260510155802 2 228 9.7 17.7 0.00 0.00 0.00 10 962.6
20260510155305 2 244 8.0 17.7 0.00 0.00 0.00 10 962.6
20260510154802 2 232 8.0 17.7 0.00 0.00 0.00 10 962.7
20260510154302 1 244 8.0 17.7 0.00 0.00 0.00 10 962.8
20260510153802 1 252 8.0 17.7 0.00 0.00 0.00 10 962.8
20260510153302 1 240 8.0 14.5 0.00 0.00 0.00 10 962.8
20260510152802 1 256 8.0 17.7 0.00 0.00 0.00 10 962.9
20260510152306 1 242 8.0 17.7 0.00 0.00 0.00 10 963.0
20260510151802 1 202 8.0 17.7 0.00 0.00 0.00 10 963.1
20260510151302 1 220 6.4 16.1 0.00 0.00 0.00 10 963.1
20260510150732 1 230 6.4 12.9 0.00 0.00 0.00 10 963.2
20260510150232 1 218 6.4 14.5 0.00 0.00 0.00 10 963.4
20260510145702 1 206 6.4 14.5 0.00 0.00 0.00 10 963.4
20260510145202 1 253 8.0 14.5 0.00 0.00 0.00 10 963.4
20260510144702 1 199 6.4 14.5 0.00 0.00 0.00 10 963.5
20260510144202 1 219 8.0 17.7 0.00 0.00 0.00 10 963.5
20260510143702 1 207 8.0 17.7 0.00 0.00 0.00 10 963.6
20260510143202 1 234 6.4 16.1 0.00 0.00 0.00 10 963.6
20260510142702 1 254 8.0 16.1 0.00 0.00 0.00 10 963.7
20260510142202 1 221 8.0 14.5 0.00 0.00 0.00 10 963.8
20260510141632 1 230 4.8 14.5 0.00 0.00 0.00 10 963.8
20260510141132 1 228 4.8 12.9 0.00 0.00 0.00 10 963.9
20260510140632 1 182 4.8 12.9 0.00 0.00 0.00 10 963.8
20260510140132 1 196 6.4 14.5 0.00 0.00 0.00 10 963.9
20260510135632 1 242 6.4 14.5 0.00 0.00 0.00 10 963.9
20260510135131 1 251 8.0 17.7 0.00 0.00 0.00 10 963.8
20260510134631 1 227 8.0 17.7 0.00 0.00 0.00 10 963.9
20260510134132 1 216 6.4 16.1 0.00 0.00 0.00 10 964.0
20260510133631 1 262 6.4 12.9 0.00 0.00 0.00 10 964.1
20260510133131 1 237 6.4 12.9 0.00 0.00 0.00 10 964.0
20260510132631 1 241 6.4 14.5 0.00 0.00 0.00 10 964.1
20260510132131 1 230 6.4 14.5 0.00 0.00 0.00 10 964.3
20260510131631 1 215 8.0 16.1 0.00 0.00 0.00 10 964.2
20260510131131 1 223 8.0 16.1 0.00 0.00 0.00 10 964.2
20260510130631 1 191 8.0 17.7 0.00 0.00 0.00 10 964.3
20260510130131 1 249 8.0 17.7 0.00 0.00 0.00 10 964.4
20260510125631 1 203 8.0 19.3 0.00 0.00 0.00 10 964.5
20260510125131 1 197 8.0 19.3 0.00 0.00 0.00 10 964.4
20260510124631 1 227 8.0 16.1 0.00 0.00 0.00 10 964.5
20260510124131 1 252 8.0 16.1 0.00 0.00 0.00 10 964.6
20260510123631 1 195 8.0 16.1 0.00 0.00 0.00 10 964.6
20260510123131 2 226 6.4 17.7 0.00 0.00 0.00 10 964.7
20260510122631 2 233 6.4 17.7 0.00 0.00 0.00 10 964.7
20260510122131 2 226 6.4 17.7 0.00 0.00 0.00 10 964.7
20260510121631 2 178 6.4 14.5 0.00 0.00 0.00 10 964.8
20260510121131 2 207 6.4 14.5 0.00 0.00 0.00 10 964.8
20260510120631 2 218 6.4 16.1 0.00 0.00 0.00 10 964.8
20260510120131 2 247 6.4 19.3 0.00 0.00 0.00 10 965.0
20260510115601 2 176 6.4 19.3 0.00 0.00 0.00 10 965.1
20260510115101 2 255 4.8 12.9 0.00 0.00 0.00 10 965.2
20260510114601 2 230 4.8 12.9 0.00 0.00 0.00 10 965.3
20260510114101 2 240 4.8 11.3 0.00 0.00 0.00 10 965.2
20260510113601 2 260 4.8 11.3 0.00 0.00 0.00 10 965.3
20260510113031 2 229 6.4 14.5 0.00 0.00 0.00 10 965.3
20260510112531 2 189 6.4 14.5 0.00 0.00 0.00 10 965.3
20260510112031 2 236 4.8 11.3 0.00 0.00 0.00 10 965.4
20260510111501 2 243 4.8 12.9 0.00 0.00 0.00 10 965.4
20260510111001 2 218 4.8 17.7 0.00 0.00 0.00 99 965.6
20260510110431 2 223 4.8 17.7 0.00 0.00 0.00 98 965.5
20260510105901 3 165 4.8 12.9 0.00 0.00 0.00 98 965.7
20260510105331 3 209 4.8 11.3 0.00 0.00 0.00 97 965.7
20260510104831 3 235 4.8 11.3 0.00 0.00 0.00 99 965.8
20260510104331 3 239 6.4 11.3 0.00 0.00 0.00 98 965.8
20260510103831 3 237 6.4 11.3 0.00 0.00 0.00 99 965.8
20260510103331 3 246 6.4 12.9 0.00 0.00 0.00 99 965.7
20260510102831 3 252 6.4 14.5 0.00 0.00 0.00 98 965.8
20260510102301 3 288 6.4 16.1 0.00 0.00 0.00 98 965.8
20260510101801 3 281 6.4 16.1 0.00 0.00 0.00 98 965.8
20260510101301 3 260 6.4 12.9 0.00 0.00 0.00 98 965.9
20260510100801 3 257 6.4 14.5 0.00 0.00 0.00 97 965.8
20260510100300 3 250 6.4 14.5 0.00 0.00 0.00 97 966.0
20260510095800 3 248 6.4 14.5 0.00 0.00 0.00 96 966.0
20260510095300 3 264 6.4 14.5 0.00 0.00 0.00 98 966.3
20260510094800 3 212 8.0 14.5 0.00 0.00 0.00 97 966.3
20260510094300 3 285 8.0 14.5 0.00 0.00 0.00 96 966.3
20260510093800 3 207 6.4 14.5 0.00 0.00 0.00 99 966.3
20260510093300 3 223 6.4 9.7 0.00 0.00 0.00 98 966.3
20260510092730 3 223 6.4 9.7 0.00 0.00 0.00 98 966.5
20260510092200 3 306 6.4 9.7 0.00 0.00 0.00 97 966.5
20260510091700 3 283 6.4 11.3 0.00 0.00 0.00 98 966.5
20260510091200 3 311 6.4 11.3 0.00 0.00 0.00 98 966.7
20260510090700 3 278 4.8 9.7 0.00 0.00 0.00 98 966.7
20260510090200 3 316 4.8 11.3 0.00 0.00 0.00 98 966.7
20260510085700 3 295 4.8 12.9 0.00 0.00 0.00 98 966.8
20260510085200 3 293 4.8 12.9 0.00 0.00 0.00 99 966.8
20260510084630 3 270 6.4 14.5 0.00 0.00 0.00 98 966.8
20260510084100 3 287 4.8 14.5 0.00 0.00 0.00 97 967.0
20260510083600 3 306 4.8 9.7 0.00 0.00 0.00 98 966.9
20260510083100 3 304 4.8 9.7 0.00 0.00 0.00 99 967.1
20260510082600 3 327 4.8 8.0 0.00 0.00 0.00 98 967.2
20260510082100 3 285 4.8 8.0 0.00 0.00 0.00 99 967.2
20260510081600 2 316 4.8 9.7 0.00 0.00 0.00 10 967.3
20260510081030 2 294 4.8 9.7 0.00 0.00 0.00 10 967.4
20260510080530 2 281 4.8 9.7 0.00 0.00 0.00 10 967.4
20260510080030 2 294 4.8 9.7 0.00 0.00 0.00 10 967.5
20260510075500 2 277 4.8 9.7 0.00 0.00 0.00 10 967.7
20260510075000 2 273 4.8 11.3 0.00 0.00 0.00 10 967.6
20260510074500 2 252 4.8 12.9 0.00 0.00 0.00 10 967.7
20260510073930 1 311 4.8 12.9 0.00 0.00 0.00 10 967.6
20260510073430 1 255 4.8 9.7 0.00 0.00 0.00 10 967.7
20260510072930 1 246 4.8 9.7 0.00 0.00 0.00 10 967.8
20260510072400 1 253 4.8 9.7 0.00 0.00 0.00 10 967.9
20260510071900 1 269 4.8 9.7 0.00 0.00 0.00 10 967.8
20260510071400 1 246 4.8 11.3 0.00 0.00 0.00 10 968.1
20260510070900 1 250 4.8 11.3 0.00 0.00 0.00 10 968.2
20260510070400 1 239 4.8 11.3 0.00 0.00 0.00 10 968.2
20260510065830 1 241 4.8 9.7 0.00 0.00 0.00 10 968.2
20260510065330 1 235 4.8 9.7 0.00 0.00 0.00 10 968.2
20260510064800 1 212 4.8 11.3 0.00 0.00 0.00 10 968.3
20260510064300 1 243 3.2 11.3 0.00 0.00 0.00 10 968.3
20260510063759 1 220 3.2 11.3 0.00 0.00 0.00 10 968.3
20260510063259 1 258 3.2 9.7 0.00 0.00 0.00 10 968.4
20260510062729 1 169 4.8 11.3 0.00 0.00 0.00 10 968.4
20260510062229 1 257 6.4 12.9 0.00 0.00 0.00 10 968.4
20260510061729 1 211 8.0 16.1 0.00 0.00 0.00 10 968.4
20260510061229 2 198 8.0 16.1 0.00 0.00 0.00 10 968.2
20260510060659 2 224 8.0 16.1 0.00 0.00 0.00 10 968.3
20260510060159 2 229 8.0 16.1 0.00 0.00 0.00 10 968.2
20260510055659 2 260 8.0 14.5 0.00 0.00 0.00 10 968.3
20260510055159 2 234 8.0 16.1 0.00 0.00 0.00 10 968.3
20260510054659 2 265 8.0 16.1 0.00 0.00 0.00 10 968.2
20260510054159 2 259 8.0 16.1 0.00 0.00 0.00 10 968.2
20260510053659 2 288 8.0 14.5 0.00 0.00 0.00 10 968.2
20260510053159 2 265 8.0 14.5 0.00 0.00 0.00 10 968.3
20260510052659 2 283 8.0 14.5 0.00 0.00 0.00 10 968.4
20260510052159 2 263 8.0 14.5 0.00 0.00 0.00 10 968.3
20260510051629 2 291 8.0 14.5 0.00 0.00 0.00 10 968.3
20260510051129 2 258 6.4 14.5 0.00 0.00 0.00 10 968.3
20260510050629 2 258 6.4 11.3 0.00 0.00 0.00 10 968.4
20260510050129 2 286 6.4 11.3 0.00 0.00 0.00 10 968.7
20260510045629 2 264 6.4 11.3 0.00 0.00 0.00 10 968.6
20260510045129 2 257 8.0 14.5 0.00 0.00 0.00 10 968.6
20260510044629 2 264 8.0 14.5 0.00 0.00 0.00 10 968.6
20260510044059 2 260 8.0 12.9 0.00 0.00 0.00 10 968.4
20260510043559 2 274 8.0 12.9 0.00 0.00 0.00 10 968.3
20260510043059 3 237 8.0 12.9 0.00 0.00 0.00 10 968.5
20260510042559 3 279 8.0 12.9 0.00 0.00 0.00 10 968.5
20260510042059 3 256 8.0 11.3 0.00 0.00 0.00 10 968.4
20260510041559 3 268 6.4 11.3 0.00 0.00 0.00 10 968.5
20260510041059 3 249 6.4 11.3 0.00 0.00 0.00 10 968.5
20260510040559 3 265 6.4 11.3 0.00 0.00 0.00 10 968.6
20260510040059 3 247 4.8 11.3 0.00 0.00 0.00 10 968.6
20260510035559 3 265 3.2 9.7 0.00 0.00 0.00 10 968.6
20260510035059 3 269 3.2 6.4 0.00 0.00 0.00 10 968.6
20260510034559 3 263 3.2 9.7 0.00 0.00 0.00 10 968.6
20260510034059 3 294 6.4 9.7 0.00 0.00 0.00 10 968.5
20260510033558 3 15 6.4 9.7 0.00 0.00 0.00 10 968.7
20260510033058 3 19 4.8 14.5 0.00 0.00 0.00 10 968.7
20260510032528 3 335 4.8 14.5 0.00 0.00 0.00 10 968.7
20260510031958 3 15 6.4 14.5 0.00 0.00 0.00 10 968.7
20260510031458 3 314 4.8 14.5 0.00 0.00 0.00 10 968.8
20260510030958 3 18 4.8 16.1 0.00 0.00 0.00 10 968.8
20260510030458 3 305 6.4 16.1 0.00 0.00 0.00 10 968.9
20260510025928 3 278 6.4 12.9 0.00 0.00 0.00 10 968.9
20260510025358 3 288 4.8 12.9 0.00 0.00 0.00 10 968.9
20260510024828 3 305 6.4 12.9 0.00 0.00 0.00 10 969.1
20260510024328 3 262 8.0 12.9 0.00 0.00 0.00 10 969.2
20260510023828 3 249 8.0 14.5 0.00 0.00 0.00 10 969.2
20260510023258 3 265 8.0 14.5 0.00 0.00 0.00 10 969.2
20260510022758 3 241 8.0 14.5 0.00 0.00 0.00 10 969.3
20260510022258 3 295 8.0 14.5 0.00 0.00 0.00 10 969.3
20260510021728 3 256 8.0 14.5 0.00 0.00 0.00 10 969.4
20260510021158 3 252 8.0 14.5 0.00 0.00 0.00 10 969.5
20260510020658 3 278 8.0 14.5 0.00 0.00 0.00 10 969.4
20260510020158 3 291 6.4 14.5 0.00 0.00 0.00 10 969.4
20260510015658 3 262 6.4 14.5 0.00 0.00 0.00 10 969.6
20260510015128 3 288 8.0 12.9 0.00 0.00 0.00 10 969.7
20260510014628 3 225 8.0 12.9 0.00 0.00 0.00 10 969.7
20260510014128 3 256 8.0 14.5 0.00 0.00 0.00 10 969.7
20260510013558 4 223 8.0 14.5 0.00 0.00 0.00 10 969.9
20260510013058 4 251 6.4 11.3 0.00 0.00 0.00 10 969.8
20260510012558 4 221 6.4 11.3 0.00 0.00 0.00 10 969.7
20260510012058 4 235 6.4 11.3 0.00 0.00 0.00 10 969.6
20260510011558 4 251 4.8 11.3 0.00 0.00 0.00 10 969.8
20260510011028 5 259 4.8 9.7 0.00 0.00 0.00 10 969.9
20260510010528 5 249 3.2 8.0 0.00 0.00 0.00 10 969.9
20260510010028 5 262 3.2 8.0 0.00 0.00 0.00 10 970.0
20260510005458 5 184 3.2 8.0 0.00 0.00 0.00 10 969.9
20260510004958 5 51 4.8 8.0 0.00 0.00 0.00 10 970.0
20260510004428 5 22 6.4 9.7 0.00 0.00 0.00 10 970.0
20260510003928 5 24 4.8 9.7 0.00 0.00 0.00 99 970.0
20260510003428 5 40 3.2 6.4 0.00 0.00 0.00 98 970.1
20260510002928 5 24 1.6 6.4 0.00 0.00 0.00 98 970.2
20260510002428 5 98 1.6 6.4 0.00 0.00 0.00 98 970.1
20260510001928 5 238 1.6 9.7 0.00 0.00 0.00 98 970.0
20260510001428 5 282 3.2 11.3 0.00 0.00 0.00 98 969.8
20260510000928 5 189 4.8 12.9 0.00 0.00 0.00 99 969.9
20260510000358 5 203 6.4 17.7 0.00 0.00 0.00 98 969.9
20260509235858 5 195 4.8 17.7 0.00 0.00 0.00 98 970.0
20260509235358 5 222 4.8 17.7 0.00 0.00 0.00 97 970.0
20260509234858 5 202 4.8 19.3 0.00 0.00 0.00 97 970.0
20260509234357 6 149 6.4 19.3 0.00 0.00 0.00 96 970.0
20260509233857 6 208 6.4 20.9 0.00 0.00 0.00 95 970.0
20260509233357 6 182 8.0 20.9 0.00 0.00 0.00 92 969.9
20260509232857 6 182 6.4 19.3 0.00 0.00 0.00 88 969.9
20260509232357 7 187 6.4 19.3 0.00 0.00 0.00 83 970.0
20260509231857 7 91 4.8 19.3 0.00 0.00 0.00 79 970.0
20260509231357 7 144 4.8 19.3 0.00 0.00 0.00 74 969.8
20260509230857 8 193 6.4 14.5 0.00 0.00 0.00 71 969.7
20260509230357 8 137 6.4 16.1 0.00 0.00 0.00 70 969.7
20260509225857 8 222 6.4 16.1 0.00 0.00 0.00 69 969.8
20260509225357 8 174 8.0 14.5 0.00 0.00 0.00 68 969.8
20260509224858 8 177 6.4 14.5 0.00 0.00 0.00 68 969.8
20260509224357 8 234 6.4 14.5 0.00 0.00 0.00 67 969.8
20260509223857 8 141 6.4 14.5 0.00 0.00 0.00 66 969.9
20260509223328 8 212 6.4 16.1 0.00 0.00 0.00 66 969.8
20260509222827 8 206 6.4 16.1 0.00 0.00 0.00 65 969.8
20260509222327 8 266 6.4 17.7 0.00 0.00 0.00 65 969.8
20260509221827 8 239 6.4 17.7 0.00 0.00 0.00 64 969.8
20260509221327 8 256 6.4 17.7 0.00 0.00 0.00 63 969.8
20260509220827 8 266 6.4 20.9 0.00 0.00 0.00 63 969.8
20260509220327 8 271 6.4 20.9 0.00 0.00 0.00 62 969.9
20260509215827 8 83 6.4 20.9 0.00 0.00 0.00 61 969.9
20260509215257 8 195 6.4 12.9 0.00 0.00 0.00 61 969.9
20260509214727 8 169 6.4 14.5 0.00 0.00 0.00 60 970.0
20260509214227 9 194 4.8 16.1 0.00 0.00 0.00 59 970.0
20260509213727 9 252 6.4 16.1 0.00 0.00 0.00 59 970.2
20260509213227 9 246 8.0 24.1 0.00 0.00 0.00 58 970.2
20260509212727 9 280 8.0 24.1 0.00 0.00 0.00 57 970.3
20260509212227 9 248 6.4 24.1 0.00 0.00 0.00 56 970.2
20260509211657 9 21 6.4 19.3 0.00 0.00 0.00 55 970.3
20260509211157 9 193 4.8 16.1 0.00 0.00 0.00 55 970.4
20260509210657 9 226 6.4 16.1 0.00 0.00 0.00 55 970.5
20260509210157 9 229 6.4 17.7 0.00 0.00 0.00 55 970.4
20260509205657 9 234 6.4 30.6 0.00 0.00 0.00 55 970.4
20260509205157 9 187 6.4 30.6 0.00 0.00 0.00 55 970.4
20260509204657 9 214 4.8 19.3 0.00 0.00 0.00 56 970.6
20260509204157 9 195 6.4 16.1 0.00 0.00 0.00 55 970.6
20260509203657 9 260 6.4 20.9 0.00 0.00 0.00 55 970.6
20260509203127 9 288 6.4 20.9 0.00 0.00 0.00 55 970.6
20260509202626 9 233 6.4 20.9 0.00 0.00 0.00 54 970.6
20260509202126 9 266 4.8 12.9 0.00 0.00 0.00 55 970.8
20260509201626 9 235 4.8 14.5 0.00 0.00 0.00 55 970.8
20260509201056 9 256 4.8 14.5 0.00 0.00 0.00 55 970.8
20260509200556 9 264 4.8 14.5 0.00 0.00 0.00 55 970.8
20260509200056 10 268 4.8 14.5 0.00 0.00 0.00 56 970.9
20260509195556 9 298 6.4 14.5 0.00 0.00 0.00 55 970.9
20260509195026 10 210 6.4 19.3 0.00 0.00 0.00 55 971.0
20260509194456 10 240 8.0 19.3 0.00 0.00 0.00 56 970.9
20260509193956 10 190 8.0 17.7 0.00 0.00 0.00 56 970.9
20260509193456 10 175 8.0 17.7 0.00 0.00 0.00 56 970.9
20260509192956 10 231 8.0 19.3 0.00 0.00 0.00 56 971.1
20260509192426 10 224 8.0 19.3 0.00 0.00 0.00 55 970.9
20260509191926 10 226 8.0 16.1 0.00 0.00 0.00 54 971.0
20260509191356 10 234 8.0 32.2 0.00 0.00 0.00 53 971.0
20260509190856 10 179 9.7 32.2 0.00 0.00 0.00 53 971.0